Enid Vance AFB, OK

7:51 AM CDT on May 30, 2017 (GMT -0500)
Vance Air Force Base

Weather History for KEND - March, 2013

Change the Weather History Date:

Wednesday, March 27, 2013

  Actual Average Record
Temperature  
Mean Temperature 53 °F -  
Max Temperature 69 °F 63 °F 79 °F (2012)
Min Temperature 37 °F 42 °F 30 °F (2009)
Degree Days  
Heating Degree Days 12    
Growing Degree Days 3 (Base 50)    
Moisture  
Dew Point 32 °F    
Average Humidity 47    
Maximum Humidity 65    
Minimum Humidity 28    
Precipitation  
Precipitation 0.00 in - - ()
Sea Level Pressure  
Sea Level Pressure 30.09 in    
Wind  
Wind Speed 15 mph (SSE)    
Max Wind Speed 25 mph    
Max Gust Speed 33 mph    
Visibility 10 miles    
Events      
Averages and records for this station are not official NWS values.
T = Trace of Precipitation, MM = Missing Value Source: NWS Daily Summary

Daily Weather History Graph

Daily Weather History Graph

Search for Another Location

Airport or City:

Trip Planner

Search our weather history database for the weather conditions in past years. The results will help you decide how hot, cold, wet, or windy it might be!

Date:

Astronomy

Mar. 27, 2013 Rise Set
Actual Time 7:24 AM CDT 7:49 PM CDT
Civil Twilight 6:58 AM CDT 8:15 PM CDT
Nautical Twilight 6:28 AM CDT 8:45 PM CDT
Astronomical Twilight 5:57 AM CDT 9:16 PM CDT
Moon 8:32 PM CDT (3/27) 7:17 AM CDT (3/27)
Length of Visible Light 13h 16m
Length of Day
12h 25m
Full, 100% of the Moon is Illuminated
Mar 27
Full
Apr 2
Last Quarter
Apr 10
New
Apr 18
First Quarter
Apr 25
Full

Hourly Weather History & Observations

Time (CDT) Temp. Windchill Dew Point Humidity Pressure Visibility Wind Dir Wind Speed Gust Speed Precip Events Conditions
12:58 AM 39.0 °F 32.3 °F 25.2 °F 58% 30.18 in 10.0 mi SE 10.4 mph - N/A   Clear
1:58 AM 37.4 °F 29.8 °F 24.6 °F 60% 30.17 in 10.0 mi SE 11.5 mph - N/A   Partly Cloudy
2:58 AM 37.4 °F 30.3 °F 24.8 °F 60% 30.16 in 10.0 mi SE 10.4 mph - N/A   Partly Cloudy
3:55 AM 37.4 °F 28.9 °F 26.6 °F 65% 30.13 in 10.0 mi SSE 13.8 mph - N/A   Mostly Cloudy
4:55 AM 41.0 °F 33.9 °F 26.6 °F 57% 30.11 in 10.0 mi SSE 12.7 mph - N/A   Mostly Cloudy
5:55 AM 41.0 °F 33.1 °F 26.6 °F 57% 30.11 in 10.0 mi SSE 15.0 mph - N/A   Mostly Cloudy
6:55 AM 42.8 °F 34.0 °F 24.8 °F 49% 30.09 in 10.0 mi SSE 20.7 mph - N/A   Overcast
7:55 AM 44.6 °F 35.9 °F 24.8 °F 46% 30.11 in 10.0 mi South 23.0 mph 32.2 mph N/A   Mostly Cloudy
8:55 AM 44.6 °F 35.9 °F 26.6 °F 49% 30.12 in 10.0 mi SSE 23.0 mph 32.2 mph N/A   Overcast
9:55 AM 46.4 °F 38.7 °F 26.6 °F 46% 30.12 in 10.0 mi South 20.7 mph 28.8 mph N/A   Mostly Cloudy
10:55 AM 51.8 °F - 28.4 °F 41% 30.10 in 10.0 mi South 25.3 mph 31.1 mph N/A   Mostly Cloudy
11:55 AM 55.4 °F - 30.2 °F 38% 30.09 in 10.0 mi South 25.3 mph 33.4 mph N/A   Mostly Cloudy
12:55 PM 60.8 °F - 33.8 °F 36% 30.07 in 10.0 mi South 20.7 mph 32.2 mph N/A   Mostly Cloudy
1:55 PM 62.6 °F - 33.8 °F 34% 30.06 in 10.0 mi South 24.2 mph 32.2 mph N/A   Scattered Clouds
2:55 PM 64.4 °F - 35.6 °F 34% 30.04 in 10.0 mi South 23.0 mph 31.1 mph N/A   Scattered Clouds
3:55 PM 68.0 °F - 35.6 °F 30% 30.02 in 10.0 mi South 19.6 mph 29.9 mph N/A   Scattered Clouds
4:55 PM 69.8 °F - 35.6 °F 28% 30.01 in 10.0 mi SSW 16.1 mph 25.3 mph N/A   Partly Cloudy
5:55 PM 69.8 °F - 35.6 °F 28% 30.01 in 10.0 mi South 12.7 mph - N/A   Partly Cloudy
6:58 PM 68.0 °F - 37.6 °F 33% 30.02 in 10.0 mi SSW 4.6 mph - N/A   Clear
7:58 PM 59.0 °F - 39.9 °F 49% 30.05 in 10.0 mi East 4.6 mph - N/A   Clear
8:58 PM 55.6 °F - 39.4 °F 55% 30.06 in 10.0 mi ESE 5.8 mph - N/A   Clear
9:58 PM 50.9 °F - 39.6 °F 65% 30.08 in 10.0 mi East 5.8 mph - N/A   Clear
10:58 PM 54.7 °F - 38.7 °F 55% 30.09 in 10.0 mi ESE 9.2 mph - N/A   Clear
11:58 PM 50.4 °F - 38.3 °F 63% 30.09 in 10.0 mi ESE 8.1 mph - N/A   Clear